Home > Weather > Markham > Past weeks

Flag for Canada Past Weather in Markham, Ontario, Canada — Yesterday and Last 2 Weeks

Now
82 °F

Passing clouds.


Feels Like: 82 °F
Forecast: 70 / 87 °F
Wind: 13 mph from Northwest

Location: Toronto Buttonville

Current Time: Jul 23, 2016 at 11:11:39 AM

Latest Report: Jul 23, 2016 at 10:00 AM


Visibility: 15 mi

Pressure: 29.93 "Hg

Humidity: 45%

Dew Point: 59 °F

Location of MarkhamLocation

Past Weather in Markham — Graph

°F

Markham Temperature Yesterday

Maximum temperature yesterday: 93 °F (at 3:00 PM)
Minimum temperature yesterday: 73 °F (at 6:00 AM)
Average temperature yesterday: 84 °F

High & Low Weather Summary for the Past Weeks

 TemperatureHumidityPressure
High93 °F (Jul 13, 6:00 PM)94% (Jul 9, 5:00 AM)30.28 "Hg (Jul 9, 5:00 AM)
Low55 °F (Jul 17, 4:00 AM)24% (Jul 22, 5:45 PM)29.66 "Hg (Jul 9, 4:00 AM)
Average74 °F62%29.96 "Hg
* Reported Jul 8 10:00 AM — Jul 23 10:00 AM, Markham, Weather by CustomWeather, © 2016

Note: Actual official high and low records may vary slightly from our data, if they occured in-between our weather recording intervals... More about our weather records

Advertising

Markham Weather History for the Previous 24 Hours

Scroll right to see more
 ConditionsComfort  
Time TempWeatherWind HumidityBarometerVisibility
10:00 AM
Sat, Jul 23
82 °FPassing clouds.13 mph45%29.93 "Hg15 mi
9:00 AM79 °FPassing clouds.10 mph51%29.91 "Hg15 mi
8:00 AM77 °FPassing clouds.10 mph54%29.90 "Hg15 mi
7:00 AM73 °FPassing clouds.5 mph61%29.89 "Hg15 mi
6:00 AM73 °FPassing clouds.7 mph57%29.89 "Hg15 mi
5:00 AM73 °FClear.8 mph57%29.89 "Hg15 mi
4:00 AM73 °FClear.7 mph57%29.88 "Hg15 mi
3:00 AM73 °FClear.7 mph53%29.88 "Hg15 mi
2:00 AM73 °FClear.5 mph57%29.87 "Hg15 mi
1:00 AM77 °FPassing clouds.8 mph51%29.86 "Hg15 mi
12:00 AM79 °FClear.6 mph48%29.87 "Hg15 mi
11:00 PM
Fri, Jul 22
79 °FClear.5 mph48%29.87 "Hg15 mi
10:00 PM81 °FClear.7 mph42%29.87 "Hg15 mi
9:00 PM84 °FPassing clouds.10 mph37%29.85 "Hg15 mi
8:00 PM86 °FSunny.8 mph35%29.83 "Hg15 mi
7:00 PM90 °FSunny.14 mph31%29.82 "Hg15 mi
6:00 PM91 °FPassing clouds.15 mph28%29.81 "Hg15 mi
5:45 PM93 °FPassing clouds.10 mph24%29.81 "Hg15 mi
5:00 PM93 °FPassing clouds.15 mph26%29.83 "Hg15 mi
4:00 PM93 °FPassing clouds.13 mph30%29.84 "Hg15 mi
3:00 PM93 °FPassing clouds.9 mph30%29.84 "Hg15 mi
2:00 PM91 °FPassing clouds.10 mph32%29.85 "Hg15 mi
1:00 PM91 °FPassing clouds.10 mph38%29.86 "Hg15 mi
12:45 PM88 °FScattered clouds.8 mph43%29.86 "Hg15 mi
12:00 PM90 °FPassing clouds.7 mph43%29.86 "Hg15 mi
11:00 AM86 °FPassing clouds.10 mph59%29.86 "Hg15 mi
Weather by CustomWeather, © 2016

See weather overviewHow to use our weather pages